Location: Asheville, NC
(35.6000°N, 82.5500°W)
Time: 00:07:56
(UTC-04:00)

Vanguard 2 - Pass Details

Date: 09 February 2018
Orbit: 552 x 2940 km, 32.9° (Epoch: 21 May)

Event Time Altitude Azimuth Distance (km) Brightness Sun altitude
Rises 23:10:12 0° 260° (W) 2,956 - -60.1°
Reaches altitude 10° 23:12:41 10° 257° (WSW) 1,912 - -60.4°
Maximum altitude 23:16:44 59° 177° (S) 633 - -61.1°
Drops below altitude 10° 23:20:43 10° 97° (E) 1,883 - -61.7°
Sets 23:23:09 0° 94° (E) 2,906 - -62.0°
